Time,TemperatureF,DewpointF,PressureIn,WindDirection,WindDirectionDegrees,WindSpeedMPH,WindSpeedGustMPH,Humidity,HourlyPrecipIn,Conditions,Clouds,dailyrainin,SoftwareType,DateUTC
2013-03-26 00:02:00,31.0,26.0,30.05,NNW,337,6.0,10.0,81,0.00,,,0.28,,2013-03-26 05:02:00,
2013-03-26 00:12:00,31.0,26.0,30.05,NNW,337,6.0,10.0,81,0.00,,,0.28,,2013-03-26 05:12:00,
2013-03-26 00:22:00,32.0,27.0,30.05,NW,311,6.0,10.0,80,0.00,,,0.28,,2013-03-26 05:22:00,
2013-03-26 00:32:00,32.0,26.0,30.05,WNW,298,6.0,10.0,79,0.00,,,0.28,,2013-03-26 05:32:00,
2013-03-26 00:42:00,32.0,26.0,30.05,WNW,298,6.0,10.0,79,0.00,,,0.28,,2013-03-26 05:42:00,
2013-03-26 00:52:00,31.0,26.0,30.05,NW,313,5.0,15.0,80,0.00,,,0.28,,2013-03-26 05:52:00,
2013-03-26 01:02:00,31.0,26.0,30.06,WNW,287,7.0,14.0,80,0.00,,,0.28,,2013-03-26 06:02:00,
2013-03-26 01:12:00,31.0,26.0,30.06,WNW,287,7.0,14.0,80,0.00,,,0.28,,2013-03-26 06:12:00,
2013-03-26 01:22:00,31.0,25.0,30.06,WNW,285,3.0,14.0,79,0.00,,,0.28,,2013-03-26 06:22:00,
2013-03-26 01:32:00,31.0,25.0,30.06,NW,317,2.0,9.0,79,0.00,,,0.28,,2013-03-26 06:32:00,
2013-03-26 01:42:00,31.0,25.0,30.06,NW,317,2.0,9.0,79,0.00,,,0.28,,2013-03-26 06:42:00,
2013-03-26 01:52:00,31.0,25.0,30.06,NW,309,5.0,10.0,79,0.00,,,0.28,,2013-03-26 06:52:00,
2013-03-26 02:02:00,31.0,26.0,30.06,NW,311,4.0,12.0,80,0.00,,,0.28,,2013-03-26 07:02:00,
2013-03-26 02:12:00,31.0,26.0,30.06,NW,311,4.0,12.0,80,0.00,,,0.28,,2013-03-26 07:12:00,
2013-03-26 02:22:00,31.0,25.0,30.06,NW,310,6.0,16.0,79,0.00,,,0.28,,2013-03-26 07:22:00,
2013-03-26 02:33:00,31.0,25.0,30.06,WNW,299,2.0,10.0,79,0.00,,,0.28,,2013-03-26 07:33:00,
2013-03-26 02:42:00,31.0,25.0,30.06,WNW,299,2.0,10.0,79,0.00,,,0.28,,2013-03-26 07:42:00,
2013-03-26 02:52:00,31.0,25.0,30.06,NW,306,7.0,15.0,79,0.00,,,0.28,,2013-03-26 07:52:00,
2013-03-26 03:02:00,30.0,24.0,30.06,WNW,292,5.0,9.0,79,0.00,,,0.28,,2013-03-26 08:02:00,
2013-03-26 03:12:00,30.0,24.0,30.06,WNW,292,5.0,9.0,79,0.00,,,0.28,,2013-03-26 08:12:00,
2013-03-26 03:22:00,30.0,24.0,30.06,West,280,6.0,9.0,79,0.00,,,0.28,,2013-03-26 08:22:00,
2013-03-26 03:32:00,30.0,24.0,30.06,West,280,4.0,8.0,79,0.00,,,0.28,,2013-03-26 08:32:00,
2013-03-26 03:42:00,30.0,24.0,30.06,West,280,4.0,8.0,79,0.00,,,0.28,,2013-03-26 08:42:00,
2013-03-26 03:52:00,30.0,25.0,30.06,West,269,5.0,8.0,80,0.00,,,0.28,,2013-03-26 08:52:00,
2013-03-26 04:02:00,30.0,25.0,30.06,West,280,3.0,8.0,80,0.00,,,0.28,,2013-03-26 09:02:00,
2013-03-26 04:12:00,30.0,25.0,30.06,West,280,3.0,8.0,80,0.00,,,0.28,,2013-03-26 09:12:00,
2013-03-26 04:22:00,30.0,25.0,30.07,West,277,6.0,10.0,81,0.00,,,0.28,,2013-03-26 09:22:00,
2013-03-26 04:33:00,30.0,25.0,30.07,West,263,6.0,8.0,81,0.00,,,0.28,,2013-03-26 09:33:00,
2013-03-26 04:42:00,30.0,25.0,30.07,West,263,6.0,8.0,81,0.00,,,0.28,,2013-03-26 09:42:00,
2013-03-26 04:52:00,30.0,25.0,30.07,West,274,9.0,15.0,81,0.00,,,0.28,,2013-03-26 09:52:00,
2013-03-26 05:02:00,30.0,25.0,30.07,NW,319,7.0,16.0,81,0.00,,,0.28,,2013-03-26 10:02:00,
2013-03-26 05:12:00,30.0,25.0,30.07,NW,319,7.0,16.0,81,0.00,,,0.28,,2013-03-26 10:12:00,
2013-03-26 05:22:00,31.0,26.0,30.08,West,276,9.0,20.0,80,0.00,,,0.28,,2013-03-26 10:22:00,
2013-03-26 05:32:00,31.0,25.0,30.08,WNW,296,6.0,18.0,79,0.00,,,0.28,,2013-03-26 10:32:00,
2013-03-26 05:42:00,31.0,25.0,30.08,WNW,296,6.0,18.0,79,0.00,,,0.28,,2013-03-26 10:42:00,
2013-03-26 05:53:00,31.0,26.0,30.09,West,269,8.0,16.0,80,0.00,,,0.28,,2013-03-26 10:53:00,
2013-03-26 06:03:00,31.0,25.0,30.09,West,279,5.0,14.0,79,0.00,,,0.28,,2013-03-26 11:03:00,
2013-03-26 06:12:00,31.0,25.0,30.09,West,279,5.0,14.0,79,0.00,,,0.28,,2013-03-26 11:12:00,
2013-03-26 06:22:00,30.0,25.0,30.10,WNW,289,8.0,16.0,80,0.00,,,0.28,,2013-03-26 11:22:00,
2013-03-26 06:32:00,30.0,25.0,30.10,WNW,291,7.0,16.0,80,0.00,,,0.28,,2013-03-26 11:32:00,
2013-03-26 06:42:00,30.0,25.0,30.10,WNW,291,7.0,16.0,80,0.00,,,0.28,,2013-03-26 11:42:00,
2013-03-26 06:52:00,30.0,25.0,30.11,West,279,7.0,15.0,80,0.00,,,0.28,,2013-03-26 11:52:00,
2013-03-26 07:03:00,30.0,25.0,30.11,West,279,7.0,15.0,80,0.00,,,0.28,,2013-03-26 12:03:00,
2013-03-26 07:12:00,30.0,25.0,30.11,WNW,286,7.0,14.0,80,0.00,,,0.28,,2013-03-26 12:12:00,
2013-03-26 07:22:00,31.0,26.0,30.12,NW,306,6.0,14.0,80,0.00,,,0.28,,2013-03-26 12:22:00,
2013-03-26 07:32:00,31.0,26.0,30.12,West,261,9.0,15.0,80,0.00,,,0.28,,2013-03-26 12:32:00,
2013-03-26 07:42:00,31.0,26.0,30.12,West,261,9.0,15.0,80,0.00,,,0.28,,2013-03-26 12:42:00,
2013-03-26 07:52:00,31.0,26.0,30.13,WNW,283,5.0,9.0,80,0.00,,,0.28,,2013-03-26 12:52:00,
2013-03-26 08:03:00,32.0,27.0,30.14,WSW,258,6.0,9.0,80,0.00,,,0.28,,2013-03-26 13:03:00,
2013-03-26 08:12:00,32.0,27.0,30.14,WSW,258,6.0,9.0,80,0.00,,,0.28,,2013-03-26 13:12:00,
2013-03-26 08:22:00,32.0,27.0,30.14,West,265,5.0,10.0,80,0.00,,,0.28,,2013-03-26 13:22:00,
2013-03-26 08:32:00,32.0,27.0,30.15,West,279,6.0,9.0,80,0.00,,,0.28,,2013-03-26 13:32:00,
2013-03-26 08:42:00,32.0,27.0,30.15,West,279,6.0,9.0,80,0.00,,,0.28,,2013-03-26 13:42:00,
2013-03-26 08:52:00,32.0,26.0,30.15,WNW,298,2.0,14.0,79,0.00,,,0.28,,2013-03-26 13:52:00,
2013-03-26 09:02:00,33.0,27.0,30.15,WNW,292,7.0,10.0,78,0.00,,,0.28,,2013-03-26 14:02:00,
2013-03-26 09:11:00,33.0,27.0,30.15,WNW,292,7.0,10.0,78,0.00,,,0.28,,2013-03-26 14:11:00,
2013-03-26 09:22:00,33.0,27.0,30.16,West,262,6.0,15.0,77,0.00,,,0.28,,2013-03-26 14:22:00,
2013-03-26 09:32:00,34.0,27.0,30.16,West,263,7.0,10.0,76,0.00,,,0.28,,2013-03-26 14:32:00,
2013-03-26 09:42:00,34.0,27.0,30.16,West,263,7.0,10.0,76,0.00,,,0.28,,2013-03-26 14:42:00,
2013-03-26 09:53:00,34.0,27.0,30.16,NW,323,10.0,18.0,75,0.00,,,0.28,,2013-03-26 14:53:00,
2013-03-26 10:02:00,34.0,27.0,30.16,WNW,286,6.0,16.0,75,0.00,,,0.28,,2013-03-26 15:02:00,
2013-03-26 10:12:00,34.0,27.0,30.16,WNW,286,6.0,16.0,75,0.00,,,0.28,,2013-03-26 15:12:00,
2013-03-26 10:22:00,34.0,27.0,30.17,West,279,12.0,16.0,74,0.00,,,0.28,,2013-03-26 15:22:00,
2013-03-26 10:33:00,35.0,28.0,30.17,NNW,338,3.0,12.0,74,0.00,,,0.28,,2013-03-26 15:33:00,
2013-03-26 10:42:00,35.0,28.0,30.17,NNW,338,3.0,12.0,74,0.00,,,0.28,,2013-03-26 15:42:00,
2013-03-26 10:53:00,36.0,27.0,30.18,NW,305,7.0,12.0,70,0.01,,,0.29,,2013-03-26 15:53:00,
2013-03-26 11:02:00,36.0,26.0,30.18,WNW,289,9.0,14.0,68,0.01,,,0.29,,2013-03-26 16:02:00,
2013-03-26 11:12:00,36.0,26.0,30.18,WNW,289,9.0,14.0,68,0.01,,,0.29,,2013-03-26 16:12:00,
2013-03-26 11:22:00,37.0,27.0,30.19,NW,306,12.0,15.0,66,0.05,,,0.33,,2013-03-26 16:22:00,
2013-03-26 11:32:00,36.0,27.0,30.19,NW,315,9.0,15.0,69,0.06,,,0.34,,2013-03-26 16:32:00,
2013-03-26 11:42:00,36.0,27.0,30.19,NW,315,9.0,15.0,69,0.06,,,0.34,,2013-03-26 16:42:00,
2013-03-26 11:53:00,36.0,26.0,30.19,West,274,10.0,18.0,68,0.07,,,0.36,,2013-03-26 16:53:00,
2013-03-26 12:02:00,37.0,27.0,30.19,NW,305,11.0,15.0,66,0.08,,,0.37,,2013-03-26 17:02:00,
2013-03-26 12:12:00,37.0,27.0,30.19,NW,305,11.0,15.0,66,0.08,,,0.37,,2013-03-26 17:12:00,
2013-03-26 12:23:00,37.0,27.0,30.19,WNW,292,6.0,16.0,66,0.06,,,0.39,,2013-03-26 17:23:00,
2013-03-26 12:32:00,37.0,26.0,30.19,WNW,293,8.0,12.0,64,0.05,,,0.39,,2013-03-26 17:32:00,
2013-03-26 12:42:00,37.0,26.0,30.19,WNW,293,8.0,12.0,64,0.05,,,0.39,,2013-03-26 17:42:00,
2013-03-26 12:53:00,37.0,24.0,30.19,WNW,299,10.0,20.0,60,0.04,,,0.40,,2013-03-26 17:53:00,
2013-03-26 13:02:00,37.0,24.0,30.19,WNW,295,10.0,18.0,60,0.04,,,0.41,,2013-03-26 18:02:00,
2013-03-26 13:12:00,37.0,24.0,30.19,WNW,295,10.0,18.0,60,0.04,,,0.41,,2013-03-26 18:12:00,
2013-03-26 13:23:00,37.0,24.0,30.20,WNW,288,10.0,21.0,58,0.02,,,0.40,,2013-03-26 18:23:00,
2013-03-26 13:33:00,37.0,23.0,30.20,WNW,300,9.0,15.0,57,0.02,,,0.39,,2013-03-26 18:33:00,
2013-03-26 13:42:00,37.0,23.0,30.20,WNW,300,9.0,15.0,57,0.02,,,0.39,,2013-03-26 18:42:00,
2013-03-26 13:53:00,39.0,25.0,30.19,West,265,9.0,15.0,56,0.01,,,0.37,,2013-03-26 18:53:00,
2013-03-26 14:02:00,39.0,25.0,30.19,WNW,288,10.0,15.0,57,0.01,,,0.37,,2013-03-26 19:02:00,
2013-03-26 14:12:00,39.0,25.0,30.19,WNW,288,10.0,15.0,57,0.01,,,0.37,,2013-03-26 19:12:00,
2013-03-26 14:22:00,39.0,24.0,30.19,NW,306,8.0,16.0,54,0.01,,,0.35,,2013-03-26 19:22:00,
2013-03-26 14:32:00,39.0,24.0,30.19,WNW,302,10.0,21.0,54,0.01,,,0.34,,2013-03-26 19:32:00,
2013-03-26 14:42:00,39.0,24.0,30.19,WNW,302,10.0,21.0,54,0.01,,,0.34,,2013-03-26 19:42:00,
2013-03-26 14:53:00,39.0,25.0,30.19,West,263,10.0,18.0,58,0.01,,,0.31,,2013-03-26 19:53:00,
2013-03-26 15:02:00,39.0,25.0,30.19,West,273,12.0,20.0,58,0.00,,,0.29,,2013-03-26 20:02:00,
2013-03-26 15:12:00,39.0,25.0,30.19,West,273,12.0,20.0,58,0.00,,,0.29,,2013-03-26 20:12:00,
2013-03-26 15:22:00,39.0,25.0,30.19,SW,230,10.0,21.0,56,0.00,,,0.25,,2013-03-26 20:22:00,
2013-03-26 15:32:00,39.0,23.0,30.19,WNW,283,12.0,21.0,53,0.00,,,0.24,,2013-03-26 20:32:00,
2013-03-26 15:40:00,38.0,25.0,30.19,WSW,238,6.0,20.0,58,0.00,,,0.20,,2013-03-26 20:40:00,
2013-03-26 15:42:00,39.0,23.0,30.19,WNW,283,12.0,21.0,53,0.00,,,0.24,,2013-03-26 20:42:00,
2013-03-26 15:52:00,38.0,25.0,30.19,WSW,248,12.0,20.0,58,0.00,,,0.21,,2013-03-26 20:52:00,
2013-03-26 16:02:00,38.0,25.0,30.19,WSW,238,6.0,20.0,58,0.00,,,0.20,,2013-03-26 21:02:00,
2013-03-26 16:12:00,38.0,25.0,30.19,WSW,238,6.0,20.0,58,0.00,,,0.20,,2013-03-26 21:12:00,
2013-03-26 16:22:00,38.0,25.0,30.19,WSW,238,6.0,20.0,58,0.00,,,0.20,,2013-03-26 21:22:00,
2013-03-26 16:32:00,38.0,25.0,30.19,WSW,238,6.0,20.0,58,0.00,,,0.20,,2013-03-26 21:32:00,
2013-03-26 16:41:00,37.0,22.0,30.20,West,260,7.0,15.0,54,0.00,,,0.16,,2013-03-26 21:41:00,
2013-03-26 17:22:00,37.0,22.0,30.20,West,260,7.0,15.0,54,0.00,,,0.16,,2013-03-26 22:22:00,
2013-03-26 17:33:00,37.0,22.0,30.20,West,260,7.0,15.0,54,0.00,,,0.16,,2013-03-26 22:33:00,
2013-03-26 18:22:00,36.0,26.0,30.22,South,186,9.0,15.0,68,0.00,,,0.15,,2013-03-26 23:22:00,
2013-03-26 18:32:00,36.0,27.0,30.22,WSW,245,5.0,10.0,69,0.00,,,0.14,,2013-03-26 23:32:00,
2013-03-26 18:43:00,36.0,27.0,30.22,WSW,245,5.0,10.0,69,0.00,,,0.14,,2013-03-26 23:43:00,
2013-03-26 18:52:00,36.0,26.0,30.23,SW,235,10.0,15.0,67,0.00,,,0.14,,2013-03-26 23:52:00,
2013-03-26 19:02:00,35.0,26.0,30.23,West,259,5.0,6.0,69,0.00,,,0.14,,2013-03-27 00:02:00,
2013-03-26 19:12:00,35.0,26.0,30.23,West,259,5.0,6.0,69,0.00,,,0.14,,2013-03-27 00:12:00,
2013-03-26 19:22:00,35.0,26.0,30.23,WSW,245,5.0,10.0,70,0.00,,,0.14,,2013-03-27 00:22:00,
2013-03-26 19:32:00,35.0,27.0,30.23,SW,235,5.0,9.0,71,0.00,,,0.14,,2013-03-27 00:32:00,
2013-03-26 19:42:00,35.0,27.0,30.23,SW,235,5.0,9.0,71,0.00,,,0.14,,2013-03-27 00:42:00,
2013-03-26 19:52:00,35.0,27.0,30.23,SW,228,1.0,9.0,71,0.00,,,0.14,,2013-03-27 00:52:00,
2013-03-26 20:02:00,35.0,27.0,30.23,WSW,254,7.0,15.0,71,0.00,,,0.14,,2013-03-27 01:02:00,
2013-03-26 20:12:00,35.0,27.0,30.23,WSW,254,7.0,15.0,71,0.00,,,0.14,,2013-03-27 01:12:00,
2013-03-26 20:22:00,35.0,27.0,30.24,SW,222,0.0,8.0,71,0.00,,,0.14,,2013-03-27 01:22:00,
2013-03-26 20:33:00,34.0,26.0,30.24,SW,222,2.0,5.0,71,0.00,,,0.14,,2013-03-27 01:33:00,
2013-03-26 20:42:00,34.0,26.0,30.24,SW,222,2.0,5.0,71,0.00,,,0.14,,2013-03-27 01:42:00,
2013-03-26 20:53:00,34.0,26.0,30.24,WSW,243,5.0,8.0,72,0.00,,,0.14,,2013-03-27 01:53:00,
2013-03-26 21:02:00,34.0,26.0,30.24,SW,233,1.0,5.0,73,0.00,,,0.14,,2013-03-27 02:02:00,
2013-03-26 21:12:00,34.0,26.0,30.24,SW,233,1.0,5.0,73,0.00,,,0.14,,2013-03-27 02:12:00,
2013-03-26 21:22:00,34.0,26.0,30.24,WSW,239,3.0,8.0,73,0.00,,,0.14,,2013-03-27 02:22:00,
2013-03-26 21:32:00,34.0,27.0,30.24,West,266,6.0,6.0,74,0.00,,,0.14,,2013-03-27 02:32:00,
2013-03-26 21:42:00,34.0,27.0,30.24,West,266,6.0,6.0,74,0.00,,,0.14,,2013-03-27 02:42:00,
2013-03-26 21:53:00,33.0,26.0,30.25,WSW,250,4.0,9.0,75,0.00,,,0.14,,2013-03-27 02:53:00,
2013-03-26 22:02:00,33.0,26.0,30.24,WNW,285,0.0,8.0,76,0.00,,,0.14,,2013-03-27 03:02:00,
2013-03-26 22:12:00,33.0,26.0,30.24,WNW,285,0.0,8.0,76,0.00,,,0.14,,2013-03-27 03:12:00,
2013-03-26 22:22:00,32.0,26.0,30.25,WSW,254,0.0,6.0,78,0.00,,,0.14,,2013-03-27 03:22:00,
2013-03-26 22:33:00,32.0,26.0,30.25,WSW,254,0.0,1.0,78,0.00,,,0.14,,2013-03-27 03:33:00,
2013-03-26 22:42:00,32.0,26.0,30.25,WSW,254,0.0,1.0,78,0.00,,,0.14,,2013-03-27 03:42:00,
2013-03-26 22:53:00,31.0,26.0,30.25,WSW,254,0.0,5.0,80,0.00,,,0.14,,2013-03-27 03:53:00,
2013-03-26 23:02:00,31.0,26.0,30.25,WSW,254,0.0,5.0,80,0.00,,,0.14,,2013-03-27 04:02:00,
2013-03-26 23:13:00,31.0,26.0,30.25,WSW,254,0.0,5.0,80,0.00,,,0.14,,2013-03-27 04:13:00,
2013-03-26 23:23:00,30.0,25.0,30.26,WSW,254,0.0,1.0,81,0.00,,,0.14,,2013-03-27 04:23:00,
2013-03-26 23:33:00,30.0,25.0,30.26,WSW,254,0.0,0.0,81,0.00,,,0.14,,2013-03-27 04:33:00,
2013-03-26 23:42:00,30.0,25.0,30.26,WSW,254,0.0,0.0,81,0.00,,,0.14,,2013-03-27 04:42:00,
2013-03-26 23:52:00,29.0,24.0,30.26,WSW,254,0.0,1.0,82,0.00,,,0.14,,2013-03-27 04:52:00,